Location: Unspecified
(49.2170°N, 0.0000°E)
Time: 18:58:06
(UTC+00:00)

Vanguard 3 - Pass Details

Date: 03 July 2019
Orbit: 507 x 3264 km, 33.4° (Epoch: 20 July)

Event Time Altitude Azimuth Distance (km) Brightness Sun altitude
Rises 13:49:20 0° 271° (W) 6,228 12.0 56.6°
Reaches altitude 10° 13:56:16 10° 253° (WSW) 4,586 11.7 55.7°
Maximum altitude 14:02:04 15° 224° (SW) 3,579 11.3 55.0°
Drops below altitude 10° 14:06:39 10° 193° (SSW) 3,436 10.9 54.4°
Sets 14:10:36 0° 170° (S) 3,928 10.9 53.9°
